Overview Statistics Trail Chart Weather Telemetry Raw packets
 

This is the latest recevied weather packets stored in our database for station/object 4S6DRJ-13. If no packets are shown the sender has not sent any weather packets the latest 10 day(s).

<< 128 129 130 131 132 133 134 >>
Time Temp. Humidity Pressure Rain* Wind** Luminosity Snow
1788266745 28.89° C 81% 1008.8 hPa 0 mm 1.34 m/s, 289° 5 W/m² -
1788266684 28.89° C 80% 1008.7 hPa 0 mm 2.24 m/s, 261° 6 W/m² -
1788266623 28.89° C 80% 1008.7 hPa 0 mm 0.45 m/s, 193° 7 W/m² -
1788266562 28.89° C 80% 1008.8 hPa 0 mm 1.34 m/s, 264° 8 W/m² -
1788266501 28.89° C 80% 1008.8 hPa 0 mm 1.34 m/s, 279° 9 W/m² -
1788266440 28.89° C 80% 1008.8 hPa 0 mm 1.79 m/s, 221° 10 W/m² -
1788266379 28.89° C 80% 1008.7 hPa 0 mm 1.79 m/s, 250° 11 W/m² -
1788266318 28.89° C 80% 1008.6 hPa 0 mm 1.34 m/s, 212° 12 W/m² -
1788266257 29.44° C 80% 1008.7 hPa 0 mm 1.34 m/s, 243° 13 W/m² -
1788266196 29.44° C 80% 1008.6 hPa 0 mm 1.79 m/s, 310° 15 W/m² -
1788266135 29.44° C 80% 1008.5 hPa 0 mm 0 m/s 16 W/m² -
1788266074 29.44° C 79% 1008.7 hPa 0 mm 1.79 m/s, 260° 18 W/m² -
1788266013 29.44° C 79% 1008.7 hPa 0 mm 0.89 m/s, 212° 20 W/m² -
1788265952 29.44° C 79% 1008.7 hPa 0 mm 1.34 m/s, 303° 22 W/m² -
1788265892 29.44° C 79% 1008.4 hPa 0 mm 1.79 m/s, 325° 24 W/m² -
1788265830 29.44° C 79% 1008.7 hPa 0 mm 2.24 m/s, 143° 27 W/m² -
1788265769 29.44° C 79% 1008.6 hPa 0 mm 0.89 m/s, 204° 29 W/m² -
1788265708 29.44° C 78% 1008.6 hPa 0 mm 1.34 m/s, 275° 29 W/m² -
1788265647 29.44° C 78% 1008.6 hPa 0 mm 1.79 m/s, 214° 30 W/m² -
1788265586 29.44° C 78% 1008.4 hPa 0 mm 0.45 m/s, 296° 32 W/m² -
1788265525 29.44° C 78% 1008.4 hPa 0 mm 1.79 m/s, 91° 35 W/m² -
1788265464 29.44° C 78% 1008.3 hPa 0 mm 1.34 m/s, 239° 40 W/m² -
1788265403 29.44° C 78% 1008.6 hPa 0 mm 1.79 m/s, 270° 47 W/m² -
1788265342 29.44° C 77% 1008.5 hPa 0 mm 0.89 m/s, 345° 48 W/m² -
1788265281 29.44° C 77% 1008.7 hPa 0 mm 2.24 m/s, 240° 46 W/m² -

* Rain latest hour (hover to see other rain measurements)
** Current wind speed in m/s (hover to see current wind gust speed)